Weather History for KMWK - April, 2013

Change the Weather History Date:

Saturday, April 6, 2013

  Actual Average (KINT) Record (KINT)
Temperature  
Mean Temperature 50 °F -  
Max Temperature 68 °F 65 °F 86 °F (1988)
Min Temperature 33 °F 46 °F 26 °F (1992)
Degree Days  
Heating Degree Days 14    
Moisture  
Dew Point 29 °F    
Average Humidity 45    
Maximum Humidity 77    
Minimum Humidity 21    
Precipitation  
Precipitation 0.00 in - - ()
Sea Level Pressure  
Sea Level Pressure 30.16 in    
Wind  
Wind Speed 2 mph (ESE)    
Max Wind Speed 10 mph    
Max Gust Speed 16 mph    
Visibility 10 miles    
Events      
Averages and records for this station are not official NWS values.
T = Trace of Precipitation, MM = Missing Value Source: NWS Daily Summary

Daily Weather History Graph

Daily Weather History Graph

Search for Another Location

Airport or City:

Trip Planner

Search our weather history database for the weather conditions in past years. The results will help you decide how hot, cold, wet, or windy it might be!

Date:

Astronomy

Apr. 06, 2013 Rise Set
Actual Time 7:00 AM EDT 7:48 PM EDT
Civil Twilight 6:34 AM EDT 8:15 PM EDT
Nautical Twilight 6:03 AM EDT 8:46 PM EDT
Astronomical Twilight 5:31 AM EDT 9:17 PM EDT
Moon 4:37 AM EDT (4/6) 4:21 PM EDT (4/6)
Length of Visible Light 13h 40m
Length of Day
12h 48m
Waning Crescent, 15% of the Moon is Illuminated
Apr 6
Waning Crescent
Apr 10
New
Apr 18
First Quarter
Apr 25
Full
May 2
Last Quarter

Hourly Weather History & Observations

Time (EDT) Temp. Windchill Dew Point Humidity Pressure Visibility Wind Dir Wind Speed Gust Speed Precip Events Conditions
12:15 AM 39.7 °F - 26.1 °F 58% 30.05 in 10.0 mi Calm Calm - N/A   Clear
12:35 AM 39.2 °F - 26.6 °F 61% 30.05 in 10.0 mi Calm Calm - N/A   Clear
12:55 AM 39.4 °F - 27.9 °F 63% 30.05 in 10.0 mi Calm Calm - N/A   Clear
1:15 AM 38.7 °F - 28.4 °F 67% 30.05 in 10.0 mi Calm Calm - N/A   Clear
1:35 AM 39.2 °F - 30.2 °F 70% 30.06 in 10.0 mi Calm Calm - N/A   Clear
1:55 AM 38.7 °F - 28.2 °F 66% 30.06 in 10.0 mi Calm Calm - N/A   Clear
2:15 AM 38.5 °F - 29.8 °F 71% 30.06 in 10.0 mi Calm Calm - N/A   Clear
2:35 AM 36.9 °F - 27.5 °F 69% 30.07 in 10.0 mi Calm Calm - N/A   Clear
2:55 AM 36.5 °F - 27.3 °F 69% 30.08 in 10.0 mi Calm Calm - N/A   Clear
3:15 AM 37.9 °F 34.4 °F 30.6 °F 75% 30.08 in 10.0 mi North 4.6 mph - N/A   Clear
3:55 AM 43.0 °F - 33.3 °F 69% 30.08 in 10.0 mi Calm Calm - N/A   Clear
4:15 AM 39.9 °F 36.7 °F 31.5 °F 72% 30.08 in 10.0 mi North 4.6 mph - N/A   Clear
4:35 AM 44.1 °F - 32.4 °F 63% 30.09 in 10.0 mi Calm Calm - N/A   Clear
4:55 AM 39.9 °F - 29.3 °F 66% 30.10 in 10.0 mi Calm Calm - N/A   Clear
5:15 AM 39.0 °F 36.8 °F 30.2 °F 71% 30.10 in 10.0 mi NNW 3.5 mph - N/A   Clear
5:35 AM 37.6 °F - 28.2 °F 69% 30.11 in 10.0 mi Calm Calm - N/A   Clear
5:55 AM 36.9 °F - 29.7 °F 75% 30.13 in 10.0 mi Calm Calm - N/A   Clear
6:15 AM 35.8 °F 33.0 °F 27.5 °F 72% 30.13 in 10.0 mi North 3.5 mph - N/A   Clear
6:35 AM 37.2 °F - 29.3 °F 73% 30.15 in 10.0 mi Calm Calm - N/A   Clear
6:55 AM 36.1 °F - 28.6 °F 74% 30.16 in 10.0 mi Calm Calm - N/A   Clear
7:15 AM 33.8 °F - 25.2 °F 71% 30.17 in 10.0 mi Calm Calm - N/A   Clear
7:35 AM 35.8 °F - 28.4 °F 75% 30.18 in 10.0 mi Calm Calm - N/A   Clear
7:55 AM 38.3 °F - 31.6 °F 77% 30.19 in 10.0 mi Calm Calm - N/A   Clear
8:15 AM 41.7 °F - 34.7 °F 76% 30.20 in 10.0 mi Calm Calm - N/A   Clear
8:35 AM 45.5 °F - 36.9 °F 72% 30.21 in 10.0 mi Calm Calm - N/A   Clear
8:55 AM 50.5 °F - 34.0 °F 53% 30.22 in 10.0 mi East 6.9 mph - N/A   Clear
9:15 AM 51.3 °F - 30.7 °F 45% 30.22 in 10.0 mi East 9.2 mph 16.1 mph N/A   Clear
9:35 AM 52.2 °F - 30.7 °F 44% 30.22 in 10.0 mi ENE 10.4 mph - N/A   Clear
9:55 AM 53.2 °F - 30.4 °F 42% 30.22 in 10.0 mi ENE 8.1 mph - N/A   Clear
10:15 AM 54.3 °F - 28.4 °F 37% 30.23 in 10.0 mi ESE 8.1 mph - N/A   Clear
10:55 AM 58.3 °F - 31.8 °F 37% 30.24 in 10.0 mi ESE 6.9 mph - N/A   Clear
11:15 AM 58.6 °F - 30.2 °F 34% 30.24 in 10.0 mi East 8.1 mph - N/A   Clear
11:35 AM 59.9 °F - 29.8 °F 32% 30.24 in 10.0 mi ENE 4.6 mph - N/A   Clear
11:55 AM 60.8 °F - 30.2 °F 31% 30.24 in 10.0 mi ESE 4.6 mph - N/A   Clear
12:15 PM 61.9 °F - 30.4 °F 31% 30.24 in 10.0 mi South 3.5 mph - N/A   Clear
12:35 PM 63.5 °F - 29.3 °F 28% 30.24 in 10.0 mi East 4.6 mph - N/A   Clear
12:55 PM 63.9 °F - 27.7 °F 26% 30.23 in 10.0 mi SE 3.5 mph - N/A   Clear
1:15 PM 64.0 °F - 27.9 °F 26% 30.22 in 10.0 mi ENE 4.6 mph - N/A   Clear
1:35 PM 65.7 °F - 29.5 °F 26% 30.22 in 10.0 mi South 4.6 mph - N/A   Clear
1:55 PM 65.5 °F - 29.7 °F 26% 30.21 in 10.0 mi ENE 4.6 mph - N/A   Clear
2:15 PM 65.5 °F - 30.2 °F 27% 30.21 in 10.0 mi WSW 3.5 mph - N/A   Clear
2:35 PM 66.0 °F - 30.2 °F 26% 30.21 in 10.0 mi SE 6.9 mph - N/A   Clear
2:55 PM 68.0 °F - 29.3 °F 24% 30.20 in 10.0 mi ESE 8.1 mph - N/A   Clear
3:15 PM 67.1 °F - 27.3 °F 22% 30.19 in 10.0 mi ESE 6.9 mph - N/A   Clear
3:55 PM 67.6 °F - 29.3 °F 24% 30.17 in 10.0 mi SE 5.8 mph - N/A   Clear
4:15 PM 67.5 °F - 30.0 °F 25% 30.16 in 10.0 mi Calm Calm - N/A   Clear
4:35 PM 68.2 °F - 28.6 °F 23% 30.16 in 10.0 mi Calm Calm - N/A   Clear
4:55 PM 67.8 °F - 26.6 °F 21% 30.15 in 10.0 mi Calm Calm - N/A   Clear
5:15 PM 66.9 °F - 26.6 °F 22% 30.16 in 10.0 mi South 3.5 mph - N/A   Clear
5:35 PM 67.1 °F - 26.1 °F 21% 30.16 in 10.0 mi SE 5.8 mph - N/A   Clear
5:55 PM 65.7 °F - 26.6 °F 23% 30.16 in 10.0 mi South 3.5 mph - N/A   Clear
6:15 PM 66.7 °F - 27.0 °F 22% 30.16 in 10.0 mi SSE 5.8 mph - N/A   Clear
6:55 PM 62.8 °F - 26.1 °F 25% 30.17 in 10.0 mi SSE 4.6 mph - N/A   Clear
7:15 PM 61.7 °F - 26.8 °F 27% 30.17 in 10.0 mi SSE 3.5 mph - N/A   Clear
7:35 PM 60.4 °F - 26.8 °F 28% 30.17 in 10.0 mi SE 3.5 mph - N/A   Clear
7:55 PM 58.6 °F - 25.0 °F 28% 30.17 in 10.0 mi SE 3.5 mph - N/A   Clear
8:15 PM 57.2 °F - 28.8 °F 34% 30.17 in 10.0 mi ESE 3.5 mph - N/A   Clear
8:35 PM 56.3 °F - 28.8 °F 35% 30.18 in 10.0 mi ESE 4.6 mph - N/A   Clear
8:55 PM 57.2 °F - 30.7 °F 37% 30.19 in 10.0 mi ESE 5.8 mph - N/A   Clear
9:15 PM 57.2 °F - 30.2 °F 36% 30.19 in 10.0 mi ESE 5.8 mph - N/A   Clear
9:35 PM 57.2 °F - 29.3 °F 35% 30.19 in 10.0 mi ESE 4.6 mph - N/A   Clear
9:55 PM 56.3 °F - 28.6 °F 35% 30.20 in 10.0 mi East 6.9 mph - N/A   Clear
10:15 PM 55.9 °F - 28.4 °F 35% 30.20 in 10.0 mi ESE 6.9 mph - N/A   Clear
10:35 PM 55.4 °F - 28.0 °F 35% 30.20 in 10.0 mi ESE 5.8 mph - N/A   Clear
10:55 PM 55.2 °F - 27.9 °F 35% 30.20 in 10.0 mi ESE 5.8 mph - N/A   Clear
11:15 PM 54.9 °F - 27.3 °F 35% 30.20 in 10.0 mi ESE 8.1 mph - N/A   Clear
11:35 PM 54.7 °F - 27.5 °F 35% 30.19 in 10.0 mi ESE 8.1 mph - N/A   Clear
11:55 PM 54.0 °F - 27.5 °F 36% 30.20 in 10.0 mi ESE 8.1 mph - N/A   Clear